EW5449 Weather Reports


Display with metric or nautical units.
time (UTC)temp
F
wind
direction
speed
MPH
gust
MPH
rain 1hr
in
rain 24hr
in
rain mn
in
humidity
%
barometer
mb
20260507163035 63 348 1.0 5.0 0.00 0.00 0.00 42 1010.1
20260507161547 62 350 0.0 4.0 0.00 0.00 0.00 41 1010.3
20260507160029 61 215 0.0 5.0 0.00 0.00 0.00 45 1010.6
20260507154527 60 335 0.0 4.0 0.00 0.00 0.00 43 1010.9
20260507153033 60 355 1.0 4.0 0.00 0.00 0.00 45 1011.0
20260507151523 59 342 0.0 4.0 0.00 0.00 0.00 47 1011.2
20260507150020 58 204 1.0 6.0 0.00 0.00 0.00 49 1011.3
20260507144518 57 221 0.0 5.0 0.00 0.00 0.00 51 1011.4
20260507143022 55 205 0.0 3.0 0.00 0.00 0.00 53 1011.9
20260507141520 55 338 0.0 2.0 0.00 0.00 0.00 53 1012.1
20260507140020 54 323 0.0 3.0 0.00 0.00 0.00 52 1012.4
20260507134515 54 346 0.0 2.0 0.00 0.01 0.00 52 1012.6
20260507133015 54 345 1.0 4.0 0.00 0.01 0.00 50 1012.8
20260507131518 54 329 0.0 4.0 0.00 0.01 0.00 51 1012.7
20260507130012 54 336 0.0 2.0 0.00 0.01 0.00 53 1012.7
20260507124516 53 225 0.0 2.0 0.00 0.07 0.00 54 1012.6
20260507123011 53 337 0.0 2.0 0.00 0.07 0.00 54 1012.6
20260507121513 53 342 0.0 2.0 0.00 0.07 0.00 56 1012.5
20260507120009 53 338 0.0 2.0 0.00 0.07 0.00 54 1012.5
20260507114508 53 336 0.0 2.0 0.00 0.11 0.00 55 1012.4
20260507113019 52 343 0.0 3.0 0.00 0.11 0.00 54 1012.2
20260507111504 53 349 1.0 4.0 0.00 0.11 0.00 54 1011.9
20260507110001 53 340 0.0 4.0 0.00 0.11 0.00 56 1012.0
20260507104559 53 340 0.0 3.0 0.00 0.11 0.00 56 1011.8
20260507103058 53 340 0.0 3.0 0.00 0.11 0.00 57 1011.7
20260507101556 53 348 1.0 3.0 0.00 0.11 0.00 57 1011.5
20260507100057 53 336 0.0 4.0 0.00 0.11 0.00 59 1011.2
20260507094551 54 339 1.0 4.0 0.00 0.11 0.00 63 1011.2
20260507093051 54 349 0.0 2.0 0.00 0.11 0.00 70 1011.1
20260507091558 54 340 0.0 2.0 0.00 0.11 0.00 71 1011.0
20260507090048 54 331 0.0 2.0 0.00 0.11 0.00 70 1011.0
20260507084553 54 330 0.0 2.0 0.00 0.11 0.00 70 1011.0
20260507083045 54 333 0.0 2.0 0.00 0.11 0.00 70 1011.0
20260507081552 55 340 0.0 2.0 0.00 0.11 0.00 70 1011.0
20260507080045 55 338 0.0 2.0 0.00 0.11 0.00 69 1011.0
20260507074549 55 344 0.0 2.0 0.00 0.11 0.00 69 1010.6
20260507073043 55 346 0.0 2.0 0.00 0.11 0.00 69 1010.4
20260507071542 55 296 0.0 2.0 0.00 0.11 0.00 70 1010.5
20260507070045 55 336 0.0 2.0 0.00 0.11 0.00 70 1010.4
20260507064540 55 334 0.0 2.0 0.00 0.11 0.00 70 1010.6
20260507063042 55 334 0.0 2.0 0.00 0.11 0.00 69 1010.7
20260507061539 55 314 0.0 4.0 0.00 0.11 0.00 69 1011.0
20260507060037 56 338 0.0 2.0 0.00 0.11 0.00 68 1011.1
20260507054534 56 330 0.0 2.0 0.00 0.11 0.00 69 1011.0
20260507053032 56 342 0.0 3.0 0.00 0.11 0.00 70 1011.0
20260507051531 56 340 0.0 4.0 0.00 0.11 0.00 70 1010.7
20260507050032 56 210 0.0 3.0 0.00 0.11 0.00 71 1010.9
20260507044527 56 355 0.0 6.0 0.00 0.11 0.00 72 1010.5
20260507043027 57 328 2.0 4.0 0.00 0.11 0.00 75 1010.5
20260507041521 57 339 0.0 8.0 0.00 0.11 0.00 75 1010.1
20260507040016 58 333 0.0 6.0 0.00 0.11 0.00 74 1010.5
20260507034522 58 342 0.0 4.0 0.00 0.11 0.11 74 1009.8
20260507033015 58 323 1.0 4.0 0.00 0.11 0.11 73 1010.4
20260507031511 59 346 1.0 5.0 0.00 0.11 0.11 72 1010.3
20260507030010 59 336 0.0 2.0 0.00 0.11 0.11 71 1009.9
20260507024514 59 343 0.0 5.0 0.00 0.11 0.11 70 1010.1
20260507023008 60 328 2.0 4.0 0.00 0.11 0.11 70 1010.1
20260507021506 60 338 1.0 6.0 0.00 0.11 0.11 70 1009.4
20260507020005 61 334 0.0 3.0 0.00 0.11 0.11 71 1009.4
20260507014503 61 340 0.0 5.0 0.00 0.11 0.11 70 1009.6
20260507013003 62 338 1.0 3.0 0.00 0.11 0.11 70 1009.6
20260507011501 62 340 0.0 2.0 0.00 0.11 0.11 71 1009.1
20260507010101 63 340 0.0 2.0 0.00 0.11 0.11 71 1008.8
20260507004603 63 342 0.0 4.0 0.00 0.11 0.11 72 1009.0
20260507003115 64 340 0.0 3.0 0.00 0.11 0.11 73 1009.1
20260507001614 64 337 0.0 2.0 0.00 0.11 0.11 74 1008.8
20260507000056 64 329 0.0 3.0 0.00 0.11 0.11 73 1008.7
20260506234555 65 338 0.0 2.0 0.00 0.11 0.11 73 1008.6
20260506233055 66 340 0.0 3.0 0.00 0.11 0.11 73 1007.9
20260506231559 66 174 0.0 2.0 0.00 0.11 0.11 73 1007.8
20260506224551 67 344 0.0 4.0 0.00 0.11 0.11 74 1007.3
20260506223050 68 349 1.0 5.0 0.00 0.11 0.11 74 1007.2
20260506221604 69 346 0.0 2.0 0.00 0.11 0.11 77 1006.8
20260506220050 69 342 0.0 3.0 0.00 0.11 0.11 77 1006.8
20260506214554 69 338 0.0 2.0 0.00 0.11 0.11 75 1006.5
20260506213049 69 350 0.0 2.0 0.00 0.11 0.11 76 1006.2
20260506211548 69 342 0.0 2.0 0.00 0.11 0.11 75 1006.3
20260506210055 70 345 0.0 3.0 0.00 0.11 0.11 73 1006.2
20260506204550 71 328 0.0 2.0 0.00 0.11 0.11 72 1006.0
20260506203046 72 324 0.0 3.0 0.00 0.11 0.11 68 1005.7
20260506201546 72 166 0.0 2.0 0.00 0.11 0.11 69 1005.6
20260506200049 73 106 0.0 2.0 0.00 0.11 0.11 68 1005.7
20260506194544 74 111 0.0 2.0 0.00 0.11 0.11 67 1005.7
20260506193045 73 116 0.0 3.0 0.00 0.11 0.11 69 1005.7
20260506191540 72 163 0.0 3.0 0.00 0.11 0.11 65 1005.8
20260506190039 72 213 1.0 4.0 0.00 0.11 0.11 65 1006.1
20260506184544 72 203 1.0 4.0 0.00 0.11 0.11 65 1006.0
20260506183037 73 186 0.0 4.0 0.00 0.11 0.11 65 1006.0
20260506181540 72 167 1.0 4.0 0.00 0.11 0.11 66 1006.2
20260506180033 71 162 1.0 4.0 0.00 0.11 0.11 67 1006.2
20260506174534 71 180 1.0 4.0 0.00 0.11 0.11 67 1006.2
20260506173129 70 176 1.0 3.0 0.00 0.11 0.11 68 1006.4
20260506171533 69 146 1.0 8.0 0.00 0.11 0.11 69 1006.5
20260506170031 69 186 2.0 7.0 0.00 0.11 0.11 69 1006.5
20260506164544 69 224 1.0 5.0 0.00 0.11 0.11 70 1006.5